DW3588 Weather Reports


Display with metric or nautical units.
time (UTC)temp
F
wind
direction
speed
MPH
gust
MPH
rain 1hr
in
rain 24hr
in
rain mn
in
humidity
%
barometer
mb
20260508214316 88 251 4.0 8.0 0.00 0.00 0.00 36 1014.9
20260508213814 87 351 4.0 10.0 0.00 0.00 0.00 36 1015.0
20260508213308 86 302 3.0 10.0 0.00 0.00 0.00 36 1015.0
20260508212809 86 11 3.0 8.0 0.00 0.00 0.00 37 1015.0
20260508212309 87 344 4.0 8.0 0.00 0.00 0.00 36 1015.1
20260508211808 85 317 3.0 8.0 0.00 0.00 0.00 38 1015.2
20260508211529 85 81 3.0 7.0 0.00 0.00 0.00 39 1015.2
20260508211029 86 280 4.0 11.0 0.00 0.00 0.00 35 1015.4
20260508210308 86 273 5.0 11.0 0.00 0.00 0.00 35 1015.4
20260508205809 85 317 4.0 9.0 0.00 0.00 0.00 37 1015.5
20260508205309 85 330 4.0 9.0 0.00 0.00 0.00 40 1015.5
20260508204809 85 50 3.0 8.0 0.00 0.00 0.00 37 1015.5
20260508204310 85 238 3.0 10.0 0.00 0.00 0.00 38 1015.6
20260508203804 85 316 4.0 10.0 0.00 0.00 0.00 36 1015.7
20260508203303 86 202 3.0 8.0 0.00 0.00 0.00 36 1015.6
20260508202803 85 258 3.0 8.0 0.00 0.00 0.00 36 1015.7
20260508202307 84 98 4.0 7.0 0.00 0.00 0.00 36 1015.7
20260508202023 85 311 4.0 9.0 0.00 0.00 0.00 36 1015.7
20260508201305 85 285 3.0 9.0 0.00 0.00 0.00 36 1015.8
20260508200800 83 71 2.0 8.0 0.00 0.00 0.00 37 1015.8
20260508200311 84 298 3.0 9.0 0.00 0.00 0.00 36 1015.9
20260508200021 83 328 4.0 9.0 0.00 0.00 0.00 37 1016.0
20260508195259 83 308 4.0 9.0 0.00 0.00 0.00 38 1016.1
20260508194758 83 347 3.0 7.0 0.00 0.00 0.00 38 1016.1
20260508194257 83 284 3.0 7.0 0.00 0.00 0.00 38 1016.2
20260508193757 82 355 3.0 5.0 0.00 0.00 0.00 38 1016.2
20260508193257 83 355 3.0 9.0 0.00 0.00 0.00 37 1016.2
20260508192745 82 319 3.0 9.0 0.00 0.00 0.00 38 1016.2
20260508192245 83 306 3.0 8.0 0.00 0.00 0.00 38 1016.2
20260508191743 83 265 3.0 9.0 0.00 0.00 0.00 36 1016.4
20260508191506 83 273 3.0 9.0 0.00 0.00 0.00 38 1016.4
20260508190737 83 291 3.0 8.0 0.00 0.00 0.00 37 1016.5
20260508190500 82 227 3.0 8.0 0.00 0.00 0.00 39 1016.4
20260508185735 81 292 2.0 7.0 0.00 0.00 0.00 38 1016.5
20260508185234 81 309 2.0 8.0 0.00 0.00 0.00 40 1016.6
20260508184734 81 90 2.0 8.0 0.00 0.00 0.00 40 1016.5
20260508184233 80 271 3.0 9.0 0.00 0.00 0.00 41 1016.6
20260508183731 80 312 3.0 9.0 0.00 0.00 0.00 40 1016.6
20260508183229 80 5 3.0 9.0 0.00 0.00 0.00 41 1016.7
20260508182726 80 263 3.0 9.0 0.00 0.00 0.00 40 1016.8
20260508182226 79 307 2.0 9.0 0.00 0.00 0.00 41 1016.8
20260508181724 79 273 2.0 5.0 0.00 0.00 0.00 42 1016.7
20260508181225 77 298 2.0 8.0 0.00 0.00 0.00 41 1016.9
20260508180946 77 281 2.0 8.0 0.00 0.00 0.00 44 1016.9
20260508180223 77 291 2.0 9.0 0.00 0.00 0.00 43 1016.9
20260508180205 77 324 3.0 9.0 0.00 0.00 0.00 43 1016.9
20260508175219 76 261 3.0 7.0 0.00 0.00 0.00 44 1016.9
20260508174936 76 248 2.0 6.0 0.00 0.00 0.00 45 1016.9
20260508174215 75 319 3.0 6.0 0.00 0.00 0.00 45 1016.9
20260508173933 74 302 3.0 8.0 0.00 0.00 0.00 46 1017.0
20260508173436 74 269 3.0 8.0 0.00 0.00 0.00 46 1017.1
20260508172710 74 321 3.0 8.0 0.00 0.00 0.00 46 1017.0
20260508172209 73 282 3.0 8.0 0.00 0.00 0.00 45 1017.0
20260508171705 73 332 4.0 9.0 0.00 0.00 0.00 46 1017.0
20260508171431 73 294 5.0 10.0 0.00 0.00 0.00 46 1016.9
20260508170704 72 0 4.0 10.0 0.00 0.00 0.00 47 1017.0
20260508170203 71 300 4.0 9.0 0.00 0.00 0.00 46 1017.0
20260508165933 71 5 4.0 9.0 0.00 0.00 0.00 47 1017.0
20260508165158 70 300 3.0 9.0 0.00 0.00 0.00 47 1017.0
20260508164658 69 74 3.0 7.0 0.00 0.00 0.00 54 1017.0
20260508164200 68 9 3.0 7.0 0.00 0.00 0.00 53 1017.0
20260508164140 68 103 1.0 4.0 0.00 0.00 0.00 57 1016.9
20260508163157 66 69 2.0 5.0 0.00 0.00 0.00 59 1016.9
20260508162657 65 64 2.0 5.0 0.00 0.00 0.00 58 1016.9
20260508162154 64 49 2.0 5.0 0.00 0.00 0.00 60 1016.9
20260508161654 63 60 2.0 5.0 0.00 0.00 0.00 63 1016.9
20260508161147 63 342 2.0 5.0 0.00 0.00 0.00 63 1016.9
20260508160644 62 0 2.0 5.0 0.00 0.00 0.00 64 1017.0
20260508160142 61 46 2.0 4.0 0.00 0.00 0.00 65 1016.9
20260508155642 61 12 1.0 4.0 0.00 0.00 0.00 66 1016.9
20260508155142 60 62 2.0 4.0 0.00 0.00 0.00 67 1016.9
20260508154643 60 53 1.0 4.0 0.00 0.00 0.00 68 1016.9
20260508154141 59 55 1.0 4.0 0.00 0.00 0.00 69 1016.9
20260508153959 59 295 1.0 3.0 0.00 0.00 0.00 69 1017.0
20260508153854 58 153 1.0 4.0 0.00 0.00 0.00 71 1017.0
20260508152641 58 124 2.0 4.0 0.00 0.00 0.00 72 1017.0
20260508152139 57 123 2.0 5.0 0.00 0.00 0.00 74 1017.0
20260508151636 56 145 2.0 5.0 0.00 0.00 0.00 75 1017.0
20260508151136 56 227 1.0 3.0 0.00 0.00 0.00 77 1017.0
20260508150630 55 261 1.0 2.0 0.00 0.00 0.00 78 1017.0
20260508150116 55 264 1.0 2.0 0.00 0.00 0.00 77 1017.0
20260508145615 54 265 1.0 3.0 0.00 0.00 0.00 78 1017.0
20260508145114 54 265 1.0 3.0 0.00 0.00 0.00 79 1017.0
20260508144615 53 264 1.0 3.0 0.00 0.00 0.00 79 1017.0
20260508144110 53 264 1.0 3.0 0.00 0.00 0.00 80 1017.0
20260508143611 53 264 1.0 2.0 0.00 0.00 0.00 80 1017.0
20260508143111 53 263 0.0 2.0 0.00 0.00 0.00 80 1016.9
20260508142621 52 263 0.0 3.0 0.00 0.00 0.00 80 1016.8
20260508142107 52 263 1.0 3.0 0.00 0.00 0.00 80 1016.7
20260508141826 52 264 0.0 2.0 0.00 0.00 0.00 80 1016.6
20260508141106 52 264 1.0 3.0 0.00 0.00 0.00 80 1016.6
20260508140825 52 264 1.0 3.0 0.00 0.00 0.00 80 1016.6
20260508140105 52 294 0.0 3.0 0.00 0.00 0.00 80 1016.5
20260508135600 51 296 1.0 3.0 0.00 0.00 0.00 80 1016.4
20260508135101 51 296 2.0 4.0 0.00 0.00 0.00 80 1016.4
20260508134600 51 296 1.0 4.0 0.00 0.00 0.00 79 1016.4
20260508134323 51 240 1.0 3.0 0.00 0.00 0.00 79 1016.4
20260508133822 51 240 2.0 5.0 0.00 0.00 0.00 79 1016.3
20260508133100 51 242 2.0 5.0 0.00 0.00 0.00 78 1016.3
20260508132600 51 203 1.0 3.0 0.00 0.00 0.00 78 1016.3
20260508132319 51 202 0.0 2.0 0.00 0.00 0.00 78 1016.2
20260508131600 51 203 0.0 1.0 0.00 0.00 0.00 77 1016.2
20260508131326 51 203 0.0 3.0 0.00 0.00 0.00 77 1016.1
20260508130601 51 203 1.0 3.0 0.00 0.00 0.00 77 1016.1
20260508125558 52 191 1.0 3.0 0.00 0.00 0.00 76 1016.1
20260508125320 52 191 1.0 3.0 0.00 0.00 0.00 76 1016.1
20260508124558 52 191 1.0 3.0 0.00 0.00 0.00 76 1016.2
20260508124056 52 191 1.0 3.0 0.00 0.00 0.00 76 1016.1
20260508123553 52 192 1.0 3.0 0.00 0.00 0.00 75 1016.1
20260508123053 52 207 1.0 3.0 0.00 0.00 0.00 74 1016.1
20260508122551 52 207 0.0 3.0 0.00 0.00 0.00 74 1016.1
20260508122053 53 207 0.0 2.0 0.00 0.00 0.00 74 1016.1
20260508121551 53 207 0.0 3.0 0.00 0.00 0.00 74 1016.1
20260508121313 53 207 1.0 3.0 0.00 0.00 0.00 73 1016.1
20260508120817 53 207 1.0 3.0 0.00 0.00 0.00 73 1016.0
20260508120049 53 210 2.0 4.0 0.00 0.00 0.00 73 1016.0
20260508115547 54 211 2.0 4.0 0.00 0.00 0.00 72 1016.0
20260508115313 54 213 2.0 4.0 0.00 0.00 0.00 72 1015.9
20260508114547 54 211 1.0 4.0 0.00 0.00 0.00 72 1015.9
20260508114047 54 210 1.0 4.0 0.00 0.00 0.00 71 1015.8
20260508113544 54 211 1.0 3.0 0.00 0.00 0.00 71 1015.8
20260508113042 54 211 1.0 3.0 0.00 0.00 0.00 71 1015.7
20260508112542 55 211 0.0 1.0 0.00 0.00 0.00 71 1015.8
20260508112042 55 211 0.0 1.0 0.00 0.00 0.00 71 1015.8
20260508111539 55 211 0.0 1.0 0.00 0.00 0.00 71 1015.9
20260508111300 55 211 0.0 2.0 0.00 0.00 0.00 71 1015.8
20260508110800 55 211 0.0 2.0 0.00 0.00 0.00 71 1015.8
20260508110034 55 211 1.0 3.0 0.00 0.00 0.00 71 1015.7
20260508105533 55 211 1.0 3.0 0.00 0.00 0.00 71 1015.6
20260508105030 55 210 1.0 3.0 0.00 0.00 0.00 71 1015.6
20260508104530 55 210 0.0 2.0 0.00 0.00 0.00 71 1015.7
20260508104030 55 210 0.0 1.0 0.00 0.00 0.00 71 1015.6
20260508103528 55 210 0.0 2.0 0.00 0.00 0.00 70 1015.5
20260508103256 55 210 0.0 2.0 0.00 0.00 0.00 70 1015.5
20260508102526 56 210 0.0 2.0 0.00 0.00 0.00 69 1015.5
20260508102025 56 209 0.0 0.0 0.00 0.00 0.00 69 1015.4
20260508101745 56 210 0.0 0.0 0.00 0.00 0.00 69 1015.4
20260508101244 56 209 0.0 0.0 0.00 0.00 0.00 69 1015.3
20260508100521 56 209 0.0 2.0 0.00 0.00 0.00 69 1015.3
20260508100020 56 209 0.0 2.0 0.00 0.00 0.00 69 1015.3
20260508095519 56 209 0.0 2.0 0.00 0.00 0.00 69 1015.3
20260508095018 57 209 1.0 2.0 0.00 0.00 0.00 69 1015.2
20260508094518 57 210 1.0 3.0 0.00 0.00 0.00 68 1015.2
20260508094019 57 212 1.0 3.0 0.00 0.00 0.00 68 1015.2
20260508093518 57 212 0.0 2.0 0.00 0.00 0.00 68 1015.3
20260508093018 57 212 1.0 3.0 0.00 0.00 0.00 68 1015.3
20260508092517 58 212 2.0 4.0 0.00 0.00 0.00 68 1015.3
20260508092018 58 213 2.0 7.0 0.00 0.00 0.00 67 1015.3
20260508091518 58 226 2.0 7.0 0.00 0.00 0.00 67 1015.3
20260508091009 58 240 1.0 6.0 0.00 0.00 0.00 67 1015.3
20260508090510 58 265 1.0 6.0 0.00 0.00 0.00 66 1015.3
20260508090008 58 236 1.0 2.0 0.00 0.00 0.00 66 1015.3
20260508085508 58 236 1.0 3.0 0.00 0.00 0.00 66 1015.3
20260508085008 59 236 2.0 6.0 0.00 0.00 0.00 66 1015.4
20260508084506 59 238 3.0 7.0 0.00 0.00 0.00 65 1015.3
20260508084004 59 266 4.0 8.0 0.00 0.00 0.00 65 1015.3
20260508083502 59 265 5.0 8.0 0.00 0.00 0.00 65 1015.4
20260508083002 59 273 4.0 7.0 0.00 0.00 0.00 65 1015.3
20260508082501 59 252 2.0 6.0 0.00 0.00 0.00 65 1015.4
20260508082001 59 255 2.0 7.0 0.00 0.00 0.00 65 1015.5
20260508081501 59 262 3.0 8.0 0.00 0.00 0.00 65 1015.5
20260508080957 59 265 4.0 8.0 0.00 0.00 0.00 65 1015.5
20260508080451 59 266 4.0 8.0 0.00 0.00 0.00 65 1015.5
20260508080215 59 261 4.0 8.0 0.00 0.00 0.00 66 1015.5
20260508075448 60 269 5.0 8.0 0.00 0.00 0.00 65 1015.4
20260508074945 60 259 4.0 8.0 0.00 0.00 0.00 65 1015.4
20260508074444 60 268 3.0 6.0 0.00 0.00 0.00 65 1015.4
20260508074206 60 275 2.0 6.0 0.00 0.00 0.00 64 1015.4
20260508073444 60 229 1.0 3.0 0.00 0.00 0.00 62 1015.4
20260508072942 60 230 1.0 3.0 0.00 0.00 0.00 62 1015.4
20260508072442 61 232 2.0 4.0 0.00 0.00 0.00 63 1015.4
20260508071942 61 229 2.0 4.0 0.00 0.00 0.00 62 1015.3
20260508071921 61 215 2.0 4.0 0.00 0.00 0.00 62 1015.3
20260508071204 61 196 2.0 5.0 0.00 0.00 0.00 61 1015.3
20260508070440 61 195 3.0 5.0 0.00 0.00 0.00 61 1015.3
20260508065939 61 223 2.0 5.0 0.00 0.00 0.00 60 1015.3
20260508065440 61 211 2.0 4.0 0.00 0.00 0.00 60 1015.2
20260508064940 62 198 1.0 3.0 0.00 0.00 0.00 59 1015.2
20260508064438 62 196 1.0 3.0 0.00 0.00 0.00 59 1015.2
20260508063937 62 196 0.0 2.0 0.00 0.00 0.00 59 1015.2
20260508063438 62 196 0.0 2.0 0.00 0.00 0.00 59 1015.2
20260508063203 62 196 0.0 2.0 0.00 0.00 0.00 58 1015.2
20260508062434 62 196 0.0 2.0 0.00 0.00 0.00 58 1015.1
20260508061932 63 196 1.0 2.0 0.00 0.00 0.00 57 1015.2
20260508061433 63 196 1.0 2.0 0.00 0.00 0.00 57 1015.1
20260508060931 63 196 0.0 2.0 0.00 0.00 0.00 56 1015.1
20260508060430 63 196 1.0 3.0 0.00 0.00 0.00 56 1015.1
20260508055929 64 196 1.0 3.0 0.00 0.00 0.00 56 1015.1
20260508055626 64 198 1.0 3.0 0.00 0.00 0.00 56 1015.1
20260508055512 64 196 1.0 3.0 0.00 0.00 0.00 56 1015.1
20260508054425 64 198 1.0 4.0 0.00 0.00 0.00 56 1015.1
20260508053912 65 198 1.0 4.0 0.00 0.00 0.00 56 1015.1
20260508053412 65 196 0.0 2.0 0.00 0.00 0.00 55 1015.2
20260508053127 65 196 0.0 2.0 0.00 0.00 0.00 55 1015.1
20260508052413 65 196 0.0 2.0 0.00 0.00 0.00 55 1015.1
20260508051909 66 196 1.0 3.0 0.00 0.00 0.00 55 1015.2
20260508051409 66 196 2.0 5.0 0.00 0.00 0.00 54 1015.2
20260508051133 67 196 2.0 5.0 0.00 0.00 0.00 54 1015.2
20260508050410 67 214 1.0 5.0 0.00 0.00 0.00 53 1015.2
20260508045909 68 261 1.0 3.0 0.00 0.00 0.00 53 1015.2
20260508045409 68 279 1.0 2.0 0.00 0.00 0.00 53 1015.1
20260508044910 68 279 1.0 3.0 0.00 0.00 0.00 52 1015.1
20260508044408 69 279 1.0 3.0 0.00 0.00 0.00 52 1015.1
20260508043908 69 279 1.0 3.0 0.00 0.00 0.00 51 1015.0
20260508043405 69 281 1.0 2.0 0.00 0.00 0.00 50 1015.0
20260508042905 70 281 0.0 2.0 0.00 0.00 0.00 50 1015.0
20260508042359 70 281 0.0 2.0 0.00 0.00 0.00 49 1014.9
20260508041859 71 281 1.0 2.0 0.00 0.00 0.00 49 1014.8
20260508041359 71 281 1.0 3.0 0.00 0.00 0.00 48 1014.8
20260508040859 71 281 1.0 3.0 0.00 0.00 0.00 48 1014.7
20260508040359 72 303 1.0 2.0 0.00 0.00 0.00 48 1014.6
20260508035851 72 304 1.0 2.0 0.00 0.00 0.00 47 1014.7
20260508035618 72 304 1.0 2.0 0.00 0.00 0.00 47 1014.6
20260508034849 73 304 1.0 2.0 0.00 0.00 0.00 47 1014.6
20260508034346 73 304 1.0 2.0 0.00 0.00 0.00 47 1014.5
20260508033844 73 304 1.0 4.0 0.00 0.00 0.00 46 1014.5
20260508033603 74 304 2.0 5.0 0.00 0.00 0.00 45 1014.4
20260508032842 74 306 3.0 5.0 0.00 0.00 0.00 45 1014.3
20260508032340 74 301 4.0 8.0 0.00 0.00 0.00 45 1014.2
20260508031838 75 310 4.0 8.0 0.00 0.00 0.00 44 1014.2
20260508031338 75 296 4.0 8.0 0.00 0.00 0.00 44 1014.2
20260508030837 76 317 4.0 7.0 0.00 0.00 0.00 43 1014.1
20260508030334 76 304 2.0 7.0 0.00 0.00 0.00 43 1014.1
20260508025829 77 298 3.0 6.0 0.00 0.00 0.00 43 1014.0
20260508025327 77 301 3.0 8.0 0.00 0.00 0.00 43 1014.0
20260508025023 78 284 3.0 7.0 0.00 0.00 0.00 42 1014.0
20260508024917 78 276 3.0 8.0 0.00 0.00 0.00 43 1014.0
20260508023823 79 284 3.0 8.0 0.00 0.00 0.00 42 1014.1
20260508023321 79 306 2.0 8.0 0.00 0.00 0.00 41 1014.1
20260508022817 80 267 3.0 7.0 0.00 0.00 0.00 41 1014.0
20260508022317 80 272 4.0 9.0 0.00 0.00 0.00 41 1013.9
20260508022036 80 275 4.0 9.0 0.00 0.00 0.00 41 1013.9
20260508021537 80 255 4.0 9.0 0.00 0.00 0.00 41 1013.9
20260508020813 80 268 4.0 9.0 0.00 0.00 0.00 41 1013.8
20260508020308 80 258 4.0 10.0 0.00 0.00 0.00 41 1013.8
20260508015808 80 271 5.0 10.0 0.00 0.00 0.00 41 1013.8
20260508015309 81 283 5.0 10.0 0.00 0.00 0.00 41 1013.8
20260508015029 81 269 5.0 10.0 0.00 0.00 0.00 41 1013.8
20260508014307 82 269 5.0 10.0 0.00 0.00 0.00 42 1013.8
20260508013804 82 303 5.0 10.0 0.00 0.00 0.00 42 1013.8
20260508013302 82 307 5.0 11.0 0.00 0.00 0.00 42 1013.8
20260508012803 83 280 5.0 11.0 0.00 0.00 0.00 42 1013.7
20260508012743 83 300 4.0 8.0 0.00 0.00 0.00 42 1013.8
20260508011803 83 298 4.0 11.0 0.00 0.00 0.00 42 1013.8
20260508011303 84 290 4.0 11.0 0.00 0.00 0.00 41 1013.8
20260508010802 84 240 5.0 9.0 0.00 0.00 0.00 41 1013.8
20260508010304 85 301 5.0 9.0 0.00 0.00 0.00 40 1013.7
20260508005802 85 244 4.0 9.0 0.00 0.00 0.00 40 1013.8
20260508005301 84 273 6.0 11.0 0.00 0.00 0.00 42 1013.7
20260508004759 83 22 7.0 15.0 0.00 0.00 0.00 45 1013.7
20260508004259 83 344 7.0 15.0 0.00 0.00 0.00 45 1013.7
20260508003759 83 319 6.0 14.0 0.00 0.00 0.00 45 1013.8
20260508003301 84 326 6.0 12.0 0.00 0.00 0.00 45 1013.9
20260508002759 83 5 5.0 10.0 0.00 0.00 0.00 46 1013.8
20260508002300 84 36 5.0 11.0 0.00 0.00 0.00 46 1013.9
20260508001758 84 11 5.0 11.0 0.00 0.00 0.00 45 1013.9
20260508001257 84 355 4.0 9.0 0.00 0.00 0.00 44 1013.9
20260508001014 84 5 4.0 9.0 0.00 0.00 0.00 45 1013.9
20260508000517 84 355 4.0 9.0 0.00 0.00 0.00 44 1013.9
20260507235757 84 13 4.0 9.0 0.00 0.00 0.00 45 1013.9
20260507235257 83 19 3.0 9.0 0.00 0.00 0.00 45 1014.0
20260507234754 83 50 3.0 8.0 0.00 0.00 0.00 47 1014.0
20260507234253 83 58 3.0 7.0 0.00 0.00 0.00 46 1014.1
20260507233751 83 32 3.0 8.0 0.00 0.00 0.00 48 1014.1
20260507233250 83 30 3.0 8.0 0.00 0.00 0.00 48 1014.1
20260507233011 83 18 3.0 7.0 0.00 0.00 0.00 48 1014.3
20260507232248 82 67 4.0 9.0 0.00 0.00 0.00 48 1014.3
20260507231749 83 49 4.0 10.0 0.00 0.00 0.00 48 1014.4
20260507231249 83 58 4.0 10.0 0.00 0.00 0.00 48 1014.4
20260507230749 83 350 4.0 9.0 0.00 0.00 0.00 47 1014.4
20260507230507 83 0 4.0 9.0 0.00 0.00 0.00 47 1014.5
20260507225746 83 334 3.0 9.0 0.00 0.00 0.00 48 1014.5
20260507225245 83 0 4.0 10.0 0.00 0.00 0.00 47 1014.7
20260507224745 83 315 5.0 11.0 0.00 0.00 0.00 47 1014.7
20260507224507 83 33 5.0 11.0 0.00 0.00 0.00 48 1014.8
20260507223745 83 41 5.0 11.0 0.00 0.00 0.00 48 1014.8
20260507223502 83 15 5.0 11.0 0.00 0.00 0.00 48 1014.8
20260507222732 83 342 5.0 11.0 0.00 0.00 0.00 48 1015.0
20260507222448 83 335 6.0 11.0 0.00 0.00 0.00 48 1015.1
20260507221731 83 0 6.0 10.0 0.00 0.00 0.00 49 1015.2
20260507221230 82 24 6.0 12.0 0.00 0.00 0.00 49 1015.3
20260507220731 82 27 6.0 12.0 0.00 0.00 0.00 48 1015.4
20260507220231 83 5 5.0 10.0 0.00 0.00 0.00 48 1015.3
20260507215732 82 329 4.0 10.0 0.00 0.00 0.00 49 1015.4
20260507215230 82 325 5.0 10.0 0.00 0.00 0.00 50 1015.4